This demonstration page uses our WeatherBlox Daily Observations layout. Learn more.

Left ArrowRight Arrow

40.97296, -117.73568

Hourly Observations for March 15, 2016

Temp ( °F °C ) Dew Point ( °F °C ) Humidity (%) Winds ( mph kmh ) Pressure ( in mb ) Visibility ( mi km ) Precip ( " mm )
12:56 am 00:56 Clear 36 2.2 19 -7.2 50 50 WSW 7 11 30.19 1022 10 16 0.00 0.00
1:56 am 01:56 Clear 33 0.6 19 -7.2 56 56 W 7 11 30.19 1023 10 16 0.00 0.00
2:56 am 02:56 Clear 32 0 20 -6.7 61 61 SSE 6 9 30.19 1023 10 16 0.00 0.00
3:56 am 03:56 Clear 32 0 21 -6.1 64 64 Calm 30.20 1023 10 16 0.00 0.00
4:56 am 04:56 Clear 28 -2.2 21 -6.1 75 75 S 6 9 30.20 1023 10 16 0.00 0.00
5:56 am 05:56 Mostly Cloudy 30 -1.1 22 -5.6 72 72 Calm 30.20 1023 10 16 0.00 0.00
6:56 am 06:56 Cloudy 31 -0.6 23 -5 72 72 SSE 5 7 30.22 1023 10 16 0.00 0.00
7:56 am 07:56 Cloudy 32 0 24 -4.4 73 73 SW 3 6 30.25 1024 10 16 0.00 0.00
8:56 am 08:56 Cloudy 35 1.7 26 -3.3 70 70 SSE 6 9 30.25 1025 10 16 0.00 0.00
9:56 am 09:56 Cloudy 41 5 24 -4.4 51 51 W 10 17 30.27 1025 10 16 0.00 0.00
10:56 am 10:56 Cloudy 43 6.1 23 -5 45 45 W 6 9 30.25 1024 10 16 0.00 0.00
11:56 am 11:56 Cloudy 44 6.7 22 -5.6 41 41 WSW 9 15 30.22 1023 10 16 0.00 0.00
12:56 pm 12:56 Cloudy 46 7.8 19 -7.2 34 34 W 6 9 30.21 1023 10 16 0.00 0.00
2:56 pm 14:56 Sunny 52 11.1 22 -5.6 31 31 WNW 14 22 30.16 1021 10 16 0.00 0.00
3:56 pm 15:56 Sunny 50 10 21 -6.1 32 32 WNW 17 28 30.16 1021 10 16 0.00 0.00
4:56 pm 16:56 Sunny 49 9.4 21 -6.1 33 33 W 15 24 30.17 1022 10 16 0.00 0.00
5:56 pm 17:56 Sunny 47 8.3 22 -5.6 37 37 W 9 15 30.18 1022 10 16 0.00 0.00
6:56 pm 18:56 Sunny 43 6.1 23 -5 45 45 NW 6 9 30.20 1023 10 16 0.00 0.00
7:56 pm 19:56 Clear 38 3.3 24 -4.4 57 57 N 7 11 30.22 1024 10 16 0.00 0.00
8:56 pm 20:56 Clear 31 -0.6 22 -5.6 69 69 N 3 6 30.25 1024 10 16 0.00 0.00
9:56 pm 21:56 Clear 32 0 23 -5 69 69 WSW 6 9 30.24 1024 10 16 0.00 0.00
10:56 pm 22:56 Clear 27 -2.8 21 -6.1 78 78 W 6 9 30.26 1025 10 16 0.00 0.00
11:56 pm 23:56 Clear 32 0 23 -5 69 69 Calm 30.24 1024 10 16 0.00 0.00

Powered by AerisWeather